Flag for Ireland Weather past 2 weeks in Waterford, Ireland

Now
55 °F

Light rain. Broken clouds.


Feels Like: 52 °F
Forecast: 52 / 64 °F
Wind: 15 mph from West

Location: Cork Airport

Current Time: Jul 7, 2015 at 11:41:02 PM

Latest Report: Jul 7, 2015 at 10:30 PM


Visibility: 6 mi

Pressure: 29.74 "Hg

Humidity: 94%

Dew point: 54 °F

Location of WaterfordLocation

Historic Weather in Waterford — Graph

°F

Waterford temperature yesterday

Maximum temperature yesterday: 61 °F (at 10:00 AM)
Minimum temperature yesterday: 50 °F (at 12:30 AM)
Average temperature yesterday: 58 °F

Past Weeks' High & Low Weather Summary

 TemperatureHumidityPressure
High66 °F (Jun 26, 2:00 PM)100% (Jun 24, 12:00 AM)30.15 "Hg (Jun 24, 12:00 AM)
Low48 °F (Jul 2, 5:00 AM)56% (Jun 26, 2:30 PM)29.68 "Hg (Jul 6, 4:30 PM)
Average58 °F91%29.96 "Hg
* Reported Jun 22 10:00 PM — Jul 7 10:30 PM, Waterford, Weather by CustomWeather, © 2015

Note: Actual official high and low records may vary slightly from our data, if they occured in-between our weather recording intervals... More about our weather records

Advertising

Waterford weather history for previous 24 hours

 ConditionsComfort  
Time TempWeatherWind HumidityBarometerVisibility
10:30 PM
Tue, Jul 7
55 °FLight rain. Broken clouds.15 mph94%29.74 "Hg6 mi
10:00 PM55 °FLight rain. Broken clouds.17 mph94%29.74 "Hg5 mi
9:30 PM55 °FLight rain. Broken clouds.17 mph94%29.74 "HgN/A
9:00 PM55 °FBroken clouds.17 mph94%29.74 "HgN/A
8:30 PM55 °FBroken clouds.20 mph88%29.71 "HgN/A
8:00 PM55 °FBroken clouds.20 mph88%29.71 "HgN/A
7:30 PM55 °FPartly sunny.17 mph82%29.71 "HgN/A
7:00 PM55 °FPartly sunny.16 mph88%29.74 "HgN/A
6:30 PM57 °FSprinkles. Partly sunny.17 mph77%29.71 "HgN/A
6:00 PM59 °FPartly sunny.22 mph72%29.71 "HgN/A
5:30 PM59 °FBroken clouds.21 mph72%29.71 "HgN/A
5:00 PM59 °FBroken clouds.24 mph72%29.71 "HgN/A
4:30 PM59 °FPartly sunny.22 mph72%29.74 "HgN/A
4:00 PM59 °FScattered clouds.21 mph77%29.74 "HgN/A
3:30 PM61 °FPartly sunny.18 mph68%29.74 "HgN/A
3:00 PM63 °FScattered clouds.22 mph64%29.74 "HgN/A
2:30 PM61 °FScattered clouds.21 mph63%29.74 "HgN/A
2:00 PM61 °FPartly sunny.20 mph68%29.74 "HgN/A
1:30 PM59 °FSprinkles. Scattered clouds.21 mph77%29.74 "HgN/A
1:00 PM61 °FScattered clouds.22 mph72%29.74 "HgN/A
12:30 PM61 °FBroken clouds.21 mph77%29.74 "HgN/A
12:00 PM61 °FScattered clouds.21 mph72%29.74 "HgN/A
11:30 AM59 °FBroken clouds.21 mph72%29.74 "HgN/A
11:00 AM59 °FBroken clouds.20 mph82%29.74 "HgN/A
10:30 AM57 °FBroken clouds.18 mph82%29.74 "HgN/A
10:00 AM59 °FPartly sunny.16 mph77%29.71 "HgN/A
9:30 AM57 °FScattered clouds.16 mph88%29.71 "HgN/A
9:00 AM57 °FScattered clouds.14 mph88%29.71 "HgN/A
8:30 AM55 °FPassing clouds.14 mph94%29.71 "HgN/A
8:00 AM55 °FScattered clouds.13 mph94%29.71 "HgN/A
7:30 AM54 °FScattered clouds.13 mph100%29.71 "HgN/A
7:00 AM54 °FBroken clouds.9 mph100%29.71 "HgN/A
6:30 AM54 °FSprinkles. Broken clouds.12 mph100%29.71 "HgN/A
6:00 AM54 °FPartly cloudy.10 mph100%29.71 "HgN/A
5:30 AM54 °FPartly cloudy.10 mph100%29.71 "HgN/A
5:00 AM54 °FPartly cloudy.10 mph94%29.71 "HgN/A
4:30 AM54 °FPartly cloudy.12 mph94%29.71 "HgN/A
4:00 AM54 °FPassing clouds.13 mph100%29.71 "HgN/A
3:30 AM55 °FPassing clouds.12 mph100%29.71 "HgN/A
3:00 AM55 °FPassing clouds.10 mph100%29.71 "HgN/A
2:00 AM55 °FLight rain. Passing clouds.12 mph100%29.71 "HgN/A
1:30 AM55 °FLight rain. Mostly cloudy.12 mph100%29.71 "Hg5 mi
1:00 AM55 °FLight rain. Mostly cloudy.12 mph100%29.71 "Hg6 mi
12:30 AM57 °FLight rain. Passing clouds.13 mph100%29.71 "Hg6 mi
12:00 AM57 °FLight rain. Passing clouds.15 mph100%29.71 "Hg6 mi
11:30 PM
Mon, Jul 6
57 °FLight rain. Passing clouds.16 mph100%29.71 "Hg6 mi
11:00 PM57 °FLight rain. Partly cloudy.15 mph100%29.71 "Hg6 mi
Weather by CustomWeather, © 2015

See weather overviewHow to use our weather pages